Location: NCO
(38.4404°N, 77.1340°W)
Time: 12:31:12
(UTC-04:00)

Tiangong 2 - Visible Passes

Search period start: 20 July 2017 00:00
Search period end: 30 July 2017 00:00
Orbit: 392 x 394 km, 42.8° (Epoch: 19 July)

Date Brightness Start Highest point End Pass type
(mag) Time Alt. Az. Time Alt. Az. Time Alt. Az.
20 Jul 2.4 21:53:07 10° WNW 21:56:09 37° N 21:58:27 15° ENE visible
20 Jul 3.9 23:30:04 10° WNW 23:30:49 16° WNW 23:30:49 16° WNW visible
21 Jul 2.6 20:56:12 10° WNW 20:59:12 35° N 21:02:13 10° ENE visible
21 Jul 1.4 22:33:14 10° WNW 22:36:21 62° N 22:36:21 62° N visible
22 Jul 2.0 21:36:25 10° WNW 21:39:32 46° NNE 21:41:53 16° E visible
22 Jul 3.7 23:13:24 10° WNW 23:14:16 17° W 23:14:16 17° W visible
23 Jul 0.9 22:16:29 10° WNW 22:19:42 77° SSW 22:19:48 75° S visible
24 Jul 1.3 21:19:38 10° WNW 21:22:50 70° NNE 21:25:21 15° ESE visible
24 Jul 3.8 22:56:57 10° W 22:57:43 14° WSW 22:57:43 14° WSW visible
25 Jul 1.8 21:59:47 10° W 22:02:49 39° SSW 22:03:17 36° S visible
26 Jul 1.2 21:02:48 10° WNW 21:06:00 67° SSW 21:08:54 12° ESE visible
27 Jul 3.0 21:43:22 10° W 21:45:47 20° SW 21:46:56 17° S visible
